Key West NAF, FL

2:38 PM EDT on October 23, 2019 (GMT -0400)
Key West Naval Air Station

Weather History for KNQX - September, 2019

Change the Weather History Date:

Saturday, September 21, 2019

  Actual Average Record
Temperature  
Mean Temperature 82 °F -  
Max Temperature 87 °F 88 °F 104 °F (2017)
Min Temperature 78 °F 78 °F 72 °F (1948)
Cooling Degree Days 17    
Growing Degree Days 32 (Base 50)    
Moisture  
Dew Point 75 °F    
Average Humidity 81    
Maximum Humidity 88    
Minimum Humidity 72    
Precipitation  
Precipitation 0.28 in - - ()
Sea Level Pressure  
Sea Level Pressure 29.99 in    
Wind  
Wind Speed 16 mph (ENE)    
Max Wind Speed 23 mph    
Max Gust Speed 34 mph    
Visibility 9 miles    
Events Rain , Thunderstorm    
Averages and records for this station are not official NWS values.
T = Trace of Precipitation, MM = Missing Value Source: NWS Daily Summary

Daily Weather History Graph

Daily Weather History Graph

Search for Another Location

Airport or City:

Astronomy

Sep. 21, 2019 Rise Set
Actual Time 7:14 AM EDT 7:24 PM EDT
Civil Twilight 6:52 AM EDT 7:47 PM EDT
Nautical Twilight 6:25 AM EDT 8:13 PM EDT
Astronomical Twilight 5:59 AM EDT 8:40 PM EDT
Moon No Moon Rise 1:40 PM EDT (9/21)
Length of Visible Light 12h 54m
Length of Day
12h 09m
Waning Gibbous, 55% of the Moon is Illuminated
Sep 21
Waning Gibbous
Sep 21
Last Quarter
Sep 28
New
Oct 5
First Quarter
Oct 13
Full

Hourly Weather History & Observations

Time (EDT) Temp. Heat Index Dew Point Humidity Pressure Visibility Wind Dir Wind Speed Gust Speed Precip Events Conditions
12:07 AM 82.0 °F 88.6 °F 75.0 °F 79% 29.99 in 10.0 mi ENE 19.6 mph 27.6 mph N/A   Mostly Cloudy
12:34 AM 82.0 °F 89.4 °F 75.9 °F 82% 29.99 in 10.0 mi ENE 15.0 mph 23.0 mph N/A   Mostly Cloudy
12:53 AM 82.0 °F 89.4 °F 75.9 °F 82% 29.99 in 10.0 mi ENE 17.3 mph 26.5 mph N/A   Mostly Cloudy
1:07 AM 78.1 °F - 73.0 °F 84% 29.99 in 6.0 mi East 21.9 mph 31.1 mph 0.01 in Rain Light Rain
1:21 AM 79.0 °F - 75.0 °F 88% 30.00 in 10.0 mi ENE 13.8 mph 21.9 mph 0.01 in Rain , Thunderstorm Light Thunderstorms and Rain
1:53 AM 81.0 °F 87.3 °F 75.9 °F 85% 29.99 in 10.0 mi ENE 13.8 mph - 0.01 in   Mostly Cloudy
2:17 AM 81.0 °F 87.3 °F 75.9 °F 85% 29.99 in 9.0 mi East 13.8 mph - 0.02 in Rain , Thunderstorm Light Thunderstorms and Rain
2:30 AM 81.0 °F 86.7 °F 75.0 °F 82% 29.97 in 10.0 mi ENE 10.4 mph - 0.02 in Rain Light Rain
2:53 AM 81.0 °F 87.3 °F 75.9 °F 85% 29.97 in 10.0 mi NE 11.5 mph - 0.02 in   Mostly Cloudy
3:06 AM 82.0 °F 90.2 °F 77.0 °F 85% 29.96 in 9.0 mi ENE 12.7 mph - 0.01 in Rain Light Rain
3:19 AM 82.0 °F 90.2 °F 77.0 °F 85% 29.96 in 10.0 mi ENE 13.8 mph - 0.01 in Rain Light Rain
3:53 AM 81.0 °F 86.7 °F 75.0 °F 82% 29.95 in 10.0 mi ENE 15.0 mph 23.0 mph 0.04 in   Mostly Cloudy
4:53 AM 81.0 °F 86.7 °F 75.0 °F 82% 29.95 in 10.0 mi ENE 13.8 mph - N/A   Partly Cloudy
5:53 AM 82.0 °F 88.6 °F 75.0 °F 79% 29.97 in 10.0 mi ENE 15.0 mph - N/A   Partly Cloudy
6:04 AM 81.0 °F 86.7 °F 75.0 °F 82% 29.98 in 10.0 mi ENE 16.1 mph 25.3 mph N/A   Overcast
6:53 AM 80.1 °F 85.1 °F 75.0 °F 85% 29.99 in 6.0 mi East 16.1 mph 24.2 mph 0.01 in Rain Light Rain
7:07 AM 80.1 °F 85.1 °F 75.0 °F 85% 29.99 in 6.0 mi ENE 13.8 mph 25.3 mph 0.01 in Rain , Thunderstorm Light Thunderstorms and Rain
7:28 AM 80.1 °F 85.4 °F 75.9 °F 87% 29.99 in 10.0 mi NE 11.5 mph - 0.02 in   Mostly Cloudy
7:53 AM 82.0 °F 89.4 °F 75.9 °F 82% 29.99 in 10.0 mi NE 12.7 mph - 0.02 in   Mostly Cloudy
8:53 AM 81.0 °F 86.7 °F 75.0 °F 82% 30.02 in 10.0 mi ENE 11.5 mph - 0.00 in   Mostly Cloudy
9:26 AM 82.0 °F 88.6 °F 75.0 °F 79% 30.02 in 8.0 mi ENE 13.8 mph - 0.00 in Rain Light Rain
9:32 AM 82.0 °F 89.4 °F 75.9 °F 82% 30.02 in 10.0 mi ENE 17.3 mph 24.2 mph 0.00 in   Mostly Cloudy
9:45 AM 82.0 °F 88.6 °F 75.0 °F 79% 30.02 in 10.0 mi NE 12.7 mph 20.7 mph 0.00 in Rain Light Rain
9:53 AM 82.0 °F 89.4 °F 75.9 °F 82% 30.02 in 10.0 mi NE 12.7 mph 21.9 mph 0.00 in   Mostly Cloudy
10:53 AM 84.0 °F 92.6 °F 75.9 °F 76% 30.03 in 10.0 mi ENE 15.0 mph - N/A   Mostly Cloudy
11:53 AM 84.0 °F 92.6 °F 75.9 °F 76% 30.03 in 7.0 mi ENE 16.1 mph 21.9 mph 0.00 in Rain Light Rain
12:10 PM 82.0 °F 89.4 °F 75.9 °F 82% 30.03 in 10.0 mi ENE 12.7 mph - 0.00 in   Mostly Cloudy
12:20 PM 82.0 °F 88.6 °F 75.0 °F 79% 30.03 in 5.0 mi ENE 20.7 mph 28.8 mph 0.02 in Rain Light Rain
12:33 PM 80.1 °F 85.1 °F 75.0 °F 85% 30.03 in 7.0 mi ENE 15.0 mph 20.7 mph 0.08 in Rain Light Rain
12:45 PM 80.1 °F 85.1 °F 75.0 °F 85% 30.02 in 4.0 mi ENE 10.4 mph 24.2 mph 0.16 in Rain Heavy Rain
12:53 PM 81.0 °F 87.3 °F 75.9 °F 85% 30.02 in 10.0 mi ENE 6.9 mph - 0.16 in   Mostly Cloudy
12:59 PM 81.0 °F 87.9 °F 77.0 °F 88% 30.01 in 10.0 mi ENE 9.2 mph - N/A Thunderstorm Thunderstorm
1:24 PM 82.9 °F 91.8 °F 77.0 °F 82% 30.01 in 10.0 mi NE 13.8 mph 20.7 mph N/A   Mostly Cloudy
1:53 PM 86.0 °F 96.9 °F 77.0 °F 74% 29.99 in 10.0 mi NE 13.8 mph 23.0 mph N/A   Mostly Cloudy
2:53 PM 84.9 °F 94.1 °F 75.9 °F 74% 29.99 in 10.0 mi NE 18.4 mph 25.3 mph N/A   Mostly Cloudy
3:18 PM 82.9 °F 90.2 °F 75.0 °F 77% 29.98 in 5.0 mi ENE 23.0 mph 31.1 mph 0.00 in Rain , Thunderstorm Light Thunderstorms and Rain
3:53 PM 82.0 °F 89.4 °F 75.9 °F 82% 29.98 in 9.0 mi ENE 21.9 mph 28.8 mph 0.00 in Rain , Thunderstorm Light Thunderstorms and Rain
4:08 PM 80.1 °F 84.5 °F 73.9 °F 81% 29.97 in 10.0 mi ENE 19.6 mph 29.9 mph 0.00 in   Mostly Cloudy
4:53 PM 82.0 °F 87.9 °F 73.9 °F 76% 29.97 in 10.0 mi ENE 17.3 mph 27.6 mph 0.00 in   Mostly Cloudy
5:53 PM 82.9 °F 88.8 °F 73.0 °F 72% 29.97 in 10.0 mi ENE 18.4 mph 31.1 mph 0.00 in   Mostly Cloudy
6:27 PM 82.0 °F 87.9 °F 73.9 °F 76% 29.99 in 10.0 mi ENE 19.6 mph 28.8 mph 0.00 in Rain Light Rain
6:53 PM 79.0 °F - 73.9 °F 84% 29.98 in 10.0 mi ENE 13.8 mph 24.2 mph 0.01 in Rain Light Rain
7:53 PM 80.1 °F 84.2 °F 73.0 °F 79% 29.98 in 10.0 mi ENE 17.3 mph - 0.01 in   Scattered Clouds
8:53 PM 81.0 °F 86.2 °F 73.9 °F 79% 29.99 in 10.0 mi ENE 11.5 mph - N/A   Mostly Cloudy
9:53 PM 81.0 °F 86.2 °F 73.9 °F 79% 29.99 in 10.0 mi NE 19.6 mph 28.8 mph 0.00 in Rain Light Rain
10:53 PM 82.0 °F 87.9 °F 73.9 °F 76% 29.98 in 10.0 mi ENE 23.0 mph 34.5 mph 0.00 in   Clear
11:53 PM 81.0 °F 86.7 °F 75.0 °F 82% 29.98 in 10.0 mi NE 18.4 mph 27.6 mph N/A   Partly Cloudy